Regional Weather Roundup
Issued by NWS Upton, NY

Home | Current Version | Previous Version | Text Only | Print | Product List | Glossary On
Versions: 1 2 3 4 5 6 7 8 9 10 11 12 13 14 15 16 17 18 19 20 21 22 23 24 25 26 27 28 29 30 31 32 33 34 35 36 37 38 39 40 41 42 43 44 45 46 47 48 49 50
000
ASUS41 KOKX 102305
RWROKX

REGIONAL WEATHER ROUNDUP
NATIONAL WEATHER SERVICE NEW YORK NY
700 PM EDT THU JUL 10 2014

NOTE: "FAIR" INDICATES FEW OR NO CLOUDS BELOW 12,000 FEET WITH NO
SIGNIFICANT WEATHER AND/OR OBSTRUCTIONS TO VISIBILITY.

NYZ071-072-176-178-NJZ106-104-110000-
NEW YORK CITY METRO AREA


CITY           SKY/WX    TMP DP  RH WIND       PRES   REMARKS
CENTRAL PARK   MOSUNNY   76  60  57 VRB6      30.11S
LAGUARDIA APRT PTSUNNY   80  60  50 VRB7      30.08S
KENNEDY INTL   PTSUNNY   75  62  64 SE8       30.10S
NEWARK/LIBERTY PTSUNNY   78  60  53 SE10      30.09R
BRNX BOT. GARD   N/A     79  61  53 E3        30.09F
TETERBORO      MOSUNNY   85  59  41 E9        30.07R
$$

NYZ177-179-078>081-110000-
LONG ISLAND NEW YORK

CITY           SKY/WX    TMP DP  RH WIND       PRES   REMARKS
FARMINGDALE    MOSUNNY   75  61  61 S8        30.10R
ISLIP          PTSUNNY   76  59  55 SE9       30.08S
SHIRLEY          N/A     75  61  61 SE5       30.11R
WESTHAMPTON    PTSUNNY   74  60  61 S5        30.12R
MONTAUK POINT    N/A     74  62  66 S5        30.12R
$$

NYZ052-065-067-110000-
HUDSON VALLEY

CITY           SKY/WX    TMP DP  RH WIND       PRES   REMARKS
WHITE PLAINS   MOSUNNY   77  60  55 E5        30.10R
NEWBURGH       MOSUNNY   79  61  53 E6        30.12R
MONTGOMERY     PTSUNNY   78  65  63 CALM      30.10R
POUGHKEEPSIE   MOSUNNY   79  60  52 E5        30.09R
ALBANY         PTSUNNY   77  48  35 NW9       30.12R
$$

NJZ001-105-106-008-010-013-015-019>022-104-110000-
NEW JERSEY

CITY           SKY/WX    TMP DP  RH WIND       PRES   REMARKS
NEWARK/LIBERTY PTSUNNY   78  60  53 SE10      30.09R
TETERBORO      MOSUNNY   85  59  41 E9        30.07R
CALDWELL       CLOUDY    79  60  52 S9        30.10R
MORRISTOWN     HVY RAIN  72  66  83 N8        30.10R
SOMERVILLE     CLOUDY    76  63  64 NW13G21   30.08R
LINDEN         FAIR      79  60  52 SE8       30.11R
SUSSEX         PTSUNNY   78  65  63 CALM      30.11S
ANDOVER          N/A     70  67  90 CALM      30.12S
TRENTON        PTSUNNY   80  63  55 E9        30.07R
MILLVILLE      CLOUDY    72  70  93 SE9       30.08S
ATLANTIC CITY  CLOUDY    70  68  93 E10       30.08F FOG
WRIGHTSTOWN    CLOUDY    76  64  65 E9        30.06S
TOMS RIVER     CLOUDY    73  63  68 CALM      30.10S
BELMAR         CLOUDY    73  61  64 SE7       30.10S
$$

PAZ047>061-062-071-110000-
EASTERN PENNSYLVANIA

CITY           SKY/WX    TMP DP  RH WIND       PRES   REMARKS
PHILADELPHIA   PTSUNNY   83  65  54 SE13      30.06S
ALLENTOWN      PTSUNNY   73  64  73 NE8       30.10R
SCRANTON       PTSUNNY   76  57  51 N6        30.12S
$$

CTZ002-004>006-009-010-012-RIZ004-006-007-MAZ004-011-015-110000-
SOUTHERN NEW ENGLAND
 IN CT

CITY           SKY/WX    TMP DP  RH WIND       PRES   REMARKS
BRADLEY INTL   MOSUNNY   82  54  37 NW5       30.09R
HARTFORD       SUNNY     82  55  39 NW3       30.09R
DANBURY        SUNNY     79  55  43 N7        30.12R
WTRBRY/OXFORD  MOSUNNY   79  59  50 NW5       30.15R
BRIDGEPORT     MOSUNNY   76  61  59 SE5       30.10R
MERIDEN        SUNNY     81  58  45 W5        30.10R
NEW HAVEN      PTSUNNY   77  63  61 VRB3      30.11R
CHESTER        FAIR      75  63  64 SW5       30.12R
GROTON         MOSUNNY   72  65  78 S5        30.09R
WILLIMANTIC    SUNNY     81  57  43 W3        30.10R

 IN RI

CITY           SKY/WX    TMP DP  RH WIND       PRES   REMARKS
PROVIDENCE     PTSUNNY   81  59  47 NW7       30.09R
BLOCK ISLAND   PTSUNNY   73  61  64 SW5       30.11S
WESTERLY       MOSUNNY   76  61  59 SW3       30.10R

 IN MA

CITY           SKY/WX    TMP DP  RH WIND       PRES   REMARKS
BOSTON         MOSUNNY   81  53  37 W10       30.08R
WORCESTER      SUNNY     75  56  51 W5        30.14R
WESTFIELD      SUNNY     80  52  37 NW9       30.10R
PROVINCETOWN   NOT AVBL
NANTUCKET      CLOUDY    68  65  90 SE7       30.10R
$$

ANZ330-335-338-340-345-350-353-355-110000-
COASTAL MARINE OBSERVATIONS


STATION/POSITION TIME  SKY/WX   TEMP    WIND        PRES    VSBY  WAVE
                                AIR SEA DIR/SP/G                  HT/PER
                 (UTC)          (F)     (DEG/KT/KT) (MB)    (MI)  (FT/S)
NY HARB ENTRANCE NOT AVBL
4S FIRE IS       2200               69                N/A           3/ 7
23SW MTP         2300            69 67              1018.9          4/ 7
HUDSON CANYON    2300            70 70   50/  2/  4 1019.0          3/ 7
EXECUTION ROCKS  2300            77 69   20/  6/  6   N/A
WESTERN LI SOUND 2300            75     100/  4/  4   N/A           0
CENTRAL LI SOUND 2200            74 73  170/  4/  6   N/A           0
EASTERN LI SOUND 2200            74 67  180/  4/  6   N/A
ROBBINS REEF     2300            72     160/ 13/ 14   N/A
$$


>>>>>>>>>>>>>>>>>>>>>>>>>>>> KEY <<<<<<<<<<<<<<<<<<<<<<<<<<<
>                                                          <
>     SKY/WX - SKY CONDITION/PRESENT WEATHER               <
>     TMP    - TEMPERATURE IN FAHRENHEIT                   <
>     DP     - DEWPOINT IN FAHRENHEIT                      <
>     RH     - RELATIVE HUMIDITY IN PERCENT                <
>     WIND   - DIRECTION AND SPEED IN MPH                  <
>     PRES   - MEAN SEA LEVEL PRESSURE IN INCHES OF HG     <
>     WCI    - WIND CHILL INDEX                            <
>     VSB    - VISIBILITY IN MILES                         <
>     HX     - HEAT INDEX                                  <
>     TC     - TEMPERATURE IN CELSIUS                      <
>     VRB    - VARIABLE WIND DIRECTION                     <
>                                                          <
>>>>>>>>>>>>>>>>>>>>>>>>>>>> KEY <<<<<<<<<<<<<<<<<<<<<<<<<<<





USA.gov is the U.S. government's official web portal to all federal, state and local government web resources and services.